Showing default

THEA, 43796

Orbit data source: Space-Track

THEA, 43796 is an American payload satellite in SSO that was launched on Mon, 03 Dec 2018 UTC via an FALCON 9 launch vehicle from the Air Force Western Test Range (AFWTR). Payload-class satellites include a variety of spacecraft equipped with specific instruments for various scientific and technological missions. These include communications satellites like Starlink; space stations such as the ISS; scientific satellites like the Hubble; Earth observation satellites from companies like Planet Labs, Umbra, and HawkEye 360; GPS; miniature CubeSats for education and research; and military/defense satellites.

Loading next visibility...
Identifier
43796, 2018-099AQ
Orbit
SSO
Country
Flag of USUS
Related business
Manufacturer
SpaceQuest
Mission
Operational Commercial Sigint
Bus & Motor
CUBESAT 3U, Unknown motor
Mass
5 kg wet, 5 kg dry
Launch date (UTC)
2018-12-03 (8 years ago)
Launch vehicle
FALCON 9
Launch site
Air Force Western Test Range (AFWTR)
Object type
Payload
Rocket body
Debris
Shape & HBR
Box, 0.2 m
Radar Cross Section
0.035 m², Medium (>0.1 m² and < 1m²)

Expand to show TLE details & history
Last TLE update: 7 hours ago

TLE from 7 hours ago
0 THEA
1 43796U 18099AQ  26220.12802812  .00010834  00000-0  30378-3 0  9992
2 43796  97.4409 290.3787 0008708 102.0097 258.2123 15.36730570420660
Epoch: 2026-08-08T03:04Z
TLE epoch observation values (Epoch: 2026-08-08T03:04:21.629Z)
Latitude
-0.00008°
Longitude
-72.35523°
Altitude
460.118 km
Speed
7.636 km/s
True Right ascension
19h 21m 30s
True Declination
0° 00' 00"
Sunlit
Object was in full shadow at epoch
Visualization orbit readout
Latitude
Unknown
Longitude
Unknown
Altitude
Unknown
Speed
Unknown
Apparent Right ascension
Unknown
Apparent Declination
Unknown
Sunlit
N/A
Visualization observer readout
Local Sidereal Time
23:58:06
Azimuth
Unknown
Elevation
Unknown
Doppler factor
Unknown
Orbital elements
Apogee altitude
458.678 km
Perigee altitude
446.782 km
Semi-major axis
6,830.867 km
Eccentricity
0.00087
Inclination
97.4409°
RAAN
290.3787°
Arg. of periapsis
102.0097°
True anomaly
258.11464°
Mean anomaly
258.2123°
Eccentric anomaly
258.16347°
Mean motion
3.84441 °/min
Orbital period
93.64 mins
BSTAR
0.00030378
Loading maneuver chart data...
Computing Atmospheric mass density...
Loading historical data...
Loading historical data...
Loading historical data...
Loading historical data...
Loading historical data...
Loading historical data...
Loading historical data...

Documentation

Showing up to 5 results
|